Tracking 28790 objects as of 18-Apr-2024
HD Live streaming from Space Station
objects crossing your sky now

SECOR 3

Track SECOR 3 now!
10-day predictions
SECOR 3 is classified as:


NORAD ID: 1208
Int'l Code: 1965-016E
Perigee: 902.1 km
Apogee: 928.8 km
Inclination: 70.1 °
Period: 103.2 minutes
Semi major axis: 7286 km
RCS: 0.2205 m2 (medium)
Launch date: March 9, 1965
Source: United States (US)
Launch site: AIR FORCE WESTERN TEST RANGE (AFWTR)
Your satellite tracking list
Your tracking list is empty




NASA's NSSDC Master Catalog

Two Line Element Set (TLE):
1  1208U 65016E   24109.18300271  .00000232  00000-0  20817-3 0  9995
2  1208  70.0792  66.4491 0018263  38.8751  65.2785 13.95819924  9384
Source of the keplerian elements: AFSPC